Weather History for Wheeler AAF, HI

Change the Weather History Date:

Monday, December 24, 2012

  Actual Average Record
Temperature  
Mean Temperature 69 °F -  
Max Temperature 76 °F 74 °F 80 °F (2003)
Min Temperature 62 °F 61 °F 60 °F (1997)
Cooling Degree Days 4    
Growing Degree Days 19 (Base 50)    
Moisture  
Dew Point 61 °F    
Average Humidity 76    
Maximum Humidity 89    
Minimum Humidity 59    
Precipitation  
Precipitation 0.00 in - - ()
Sea Level Pressure  
Sea Level Pressure 29.97 in    
Wind  
Wind Speed 3 mph (NNE)    
Max Wind Speed 7 mph    
Max Gust Speed -    
Visibility 10 miles    
Events      
Averages and records for this station are not official NWS values.
T = Trace of Precipitation, MM = Missing Value Source: NWS Daily Summary

Daily Weather History Graph

Daily Weather History Graph

Search for Another Location

Airport:

Trip Planner

Search our weather history database for the weather conditions in past years. The results will help you decide how hot, cold, wet, or windy it might be!

Date:

Astronomy

Dec. 24, 2012 Rise Set
Actual Time 7:07 AM HST 5:57 PM HST
Civil Twilight 6:43 AM HST 6:21 PM HST
Nautical Twilight 6:15 AM HST 6:49 PM HST
Astronomical Twilight 5:47 AM HST 7:16 PM HST
Moon 3:24 PM HST (12/24) 4:04 AM HST (12/24)
Length of Visible Light 11h 38m
Length of Day
10h 49m
Waxing Gibbous, 89% of the Moon is Illuminated
Dec 24
Waxing Gibbous
Dec 28
Full
Jan 4
Last Quarter
Jan 11
New
Jan 18
First Quarter

Hourly Weather History & Observations

Time (HST) Temp. Dew Point Humidity Pressure Visibility Wind Dir Wind Speed Gust Speed Precip Events Conditions
12:55 AM 62.1 °F 58.3 °F 87% 29.97 in 10.0 mi Calm Calm - N/A   Partly Cloudy
1:55 AM 63.1 °F 59.5 °F 88% 29.96 in 10.0 mi NNW 3.5 mph - N/A   Clear
2:55 AM 62.8 °F 59.0 °F 87% 29.94 in 10.0 mi North 3.5 mph - N/A   Clear
3:55 AM 63.1 °F 58.6 °F 85% 29.93 in 10.0 mi North 6.9 mph - N/A   Scattered Clouds
4:55 AM 62.8 °F 55.9 °F 78% 29.92 in 10.0 mi NW 5.8 mph - N/A   Mostly Cloudy
5:55 AM 63.3 °F 55.2 °F 75% 29.94 in 10.0 mi NNW 3.5 mph - N/A   Mostly Cloudy
6:55 AM 62.6 °F 55.8 °F 78% 29.96 in 10.0 mi ENE 4.6 mph - N/A   Mostly Cloudy
7:55 AM 63.7 °F 55.8 °F 75% 29.99 in 10.0 mi Calm Calm - N/A   Clear
8:55 AM 65.1 °F 56.8 °F 75% 30.00 in 10.0 mi West 3.5 mph - N/A   Clear
9:55 AM 69.1 °F 60.8 °F 75% 30.00 in 10.0 mi Calm Calm - N/A   Clear
10:55 AM 72.3 °F 62.6 °F 71% 29.99 in 10.0 mi Calm Calm - N/A   Clear
11:55 AM 74.3 °F 61.0 °F 63% 29.96 in 10.0 mi Variable 5.8 mph - N/A   Clear
12:55 PM 76.6 °F 61.3 °F 59% 29.93 in 10.0 mi ESE 3.5 mph - N/A   Partly Cloudy
1:55 PM 75.6 °F 62.2 °F 63% 29.91 in 10.0 mi ENE 6.9 mph - N/A   Clear
2:55 PM 74.5 °F 63.9 °F 69% 29.92 in 10.0 mi NE 5.8 mph - N/A   Clear
3:55 PM 74.3 °F 63.9 °F 70% 29.94 in 10.0 mi North 4.6 mph - N/A   Clear
4:55 PM 74.1 °F 58.8 °F 59% 29.95 in 10.0 mi Calm Calm - N/A   Clear
5:55 PM 72.9 °F 63.7 °F 73% 29.96 in 10.0 mi Calm Calm - N/A   Clear
6:55 PM 70.9 °F 64.4 °F 80% 29.99 in 10.0 mi Calm Calm - N/A   Clear
7:55 PM 71.1 °F 64.8 °F 80% 30.00 in 10.0 mi NE 4.6 mph - N/A   Mostly Cloudy
9:55 PM 68.9 °F 64.2 °F 85% 30.02 in 10.0 mi ENE 3.5 mph - N/A   Partly Cloudy
10:55 PM 68.4 °F 64.4 °F 87% 30.01 in 10.0 mi Calm Calm - N/A   Scattered Clouds
11:55 PM 67.3 °F 64.0 °F 89% 30.01 in 10.0 mi Calm Calm - N/A   Overcast